Location: Rounton
(54.4000°N, 1.3500°W)
Time: 03:00:54
(UTC+00:00)

SR - Pass Details

Date: 02 December 2021
Orbit: 582 x 872 km, 66.7° (Epoch: 26 January)

Event Time Altitude Azimuth Distance (km) Brightness Sun altitude
Exits shadow 04:50:36 16° 14° (NNE) 1,557 ? -27.0°
Drops below altitude 10° 04:52:50 10° 46° (NE) 1,918 ? -26.7°
Sets 04:55:50 0° 68° (ENE) 2,837 ? -26.2°
